{"data":{"norad_id":62467,"epoch":"2026-05-25T05:13:56.639424Z","epoch_age_seconds":52625,"freshness":"FRESH","line1":"1 62467U 24254F   26145.21801666  .00158217  00000+0  12124-2 0  9995","line2":"2 62467  43.0018 122.0075 0002139 256.0517 104.0113 15.70855385 81434","mean_motion":15.70855385,"eccentricity":0.0002139,"inclination_deg":43.0018,"raan_deg":122.0075,"arg_perigee_deg":256.0517,"mean_anomaly_deg":104.0113,"bstar":0.0012124,"rev_number":8143,"period_min":91.669800654501,"perigee_km":355.01056032593,"apogee_km":357.89161711029,"semimajor_km":6734.5880887181,"source":"CELESTRAK","updated_at":"2026-05-25T13:38:19.691126Z"}}